Location: Aurora Center
(43.5271°N, 98.5894°W)
Time: 05:05:14
(UTC-05:00)

BlueWalker 3 - Pass Details

Date: 26 June 2024
Orbit: 480 x 491 km, 53.2° (Epoch: 23 July)

Event Time Altitude Azimuth Distance (km) Brightness Sun altitude
Rises 00:57:48 0° 307° (NW) 2,540 6.2 -22.5°
Reaches altitude 10° 01:00:10 10° 319° (NW) 1,658 5.3 -22.6°
Maximum altitude 01:03:28 29° 21° (NNE) 906 3.7 -22.7°
Enters shadow 01:06:06 14° 77° (ENE) 1,426 4.3 -22.7°
